Regional Weather Roundup
Issued by NWS

Home | Current Version | Previous Version | Text Only | Print | Product List | Glossary Off
Versions: 1 2 3 4 5 6 7 8 9 10 11 12 13 14 15 16 17 18 19 20 21 22 23 24 25 26 27 28 29 30 31 32 33 34 35 36 37 38 39 40 41 42 43 44 45 46 47 48 49 50

000
ASUS45 KBOU 280610
RWRCO

WEATHER ROUNDUP FOR COLORADO
NATIONAL WEATHER SERVICE DENVER/BOULDER CO
1200 AM MDT TUE JUL 28 2015

NOTE: "FAIR" INDICATES FEW OR NO CLOUDS BELOW 12000 FEET WITH NO
SIGNIFICANT WEATHER AND/OR OBSTRUCTIONS TO VISIBILITY.

COZ001>005-013-030-031-280700-
...NORTHWEST COLORADO...

CITY           SKY/WX    TMP DP  RH WIND       PRES   REMARKS
CRAIG          CLEAR     57  34  41 W7        30.22R
HAYDEN         CLEAR     59  30  33 W16       30.21R
MEEKER         CLEAR     62  31  31 VRB3      30.20R
MOUNT WERNER   NOT AVBL
STEAMBOAT SPGS CLEAR     58  33  37 W9        30.21R
WALDEN         CLEAR     52  32  46 NW9       30.25R
$$

COZ006>008-011-280700-
...WEST CENTRAL VALLEYS...

CITY           SKY/WX    TMP DP  RH WIND       PRES   REMARKS
GRAND JUNCTION CLEAR     71  36  27 W5        29.99R
MONTROSE       CLEAR     65  34  31 E7        30.10R
EAGLE          CLEAR     61  34  36 SE5       30.15R
RIFLE          CLEAR     75  28  17 NW12G22   30.08R
DELTA          CLEAR     65  33  29 NE9       30.04R
NUCLA          CLEAR     64  28  25 E9        30.14R
$$

COZ017>023-064>068-280700-
...SOUTHWEST COLORADO...

CITY           SKY/WX    TMP DP  RH WIND       PRES   REMARKS
DURANGO        CLEAR     63  37  38 N9        30.17R
CORTEZ         CLEAR     59  39  47 NE8       30.11R
PAGOSA SPRINGS CLEAR     55  39  56 CALM      30.26R
TELLURIDE      CLEAR     56  32  39 SE7       30.39S
WOLF CREEK PAS NOT AVBL
$$

COZ009-010-012-014-032>034-037-058>063-280700-
...CENTRAL COLORADO...

CITY           SKY/WX    TMP DP  RH WIND       PRES   REMARKS
ASPEN          CLEAR     57  35  43 S6        30.22R
BUENA VISTA    CLEAR     58  27  30 NW5       30.23S
COPPER MTN     CLEAR     54  21  28 SW14G26   30.53S
BERTHOUD PASS  FAIR      45  36  70 W25G37    30.55R
COTTONWOOD PAS CLEAR     64  14  14 SW10G28   30.38S
GUNNISON       CLEAR     55  36  47 N5        30.28R
KREMMLING      CLEAR     61  32  33 N12       30.22R
LEADVILLE      CLEAR     50  26  39 E3        30.37R
MONARCH PASS   CLEAR     48  27  43 SW29G35   30.64S
SALIDA         CLEAR     65  31  28 W14       30.27S
SUNLIGHT       CLEAR     52  30  43 CALM      30.46S
WILKERSON PASS CLEAR     54  23  30 SW10G18   30.50R
$$

COZ069>075-280700-
...SAN LUIS VALLEY/SANGRE DE CRISTO MOUNTAINS...

CITY           SKY/WX    TMP DP  RH WIND       PRES   REMARKS
ALAMOSA        CLEAR     55  42  61 SW7       30.21S
LA VETA PASS   CLEAR     55  34  44 MISG      30.41S
SAGUACHE       CLEAR     55  39  54 N5        30.25S
$$

COZ035-036-038>040-280700-
...NORTHERN COLORADO FRONT RANGE...

CITY           SKY/WX    TMP DP  RH WIND       PRES   REMARKS
DENVER INTL AP PTCLDY    75  35  23 SW12      29.94R
DMNS CITY PARK   N/A     72  43  35 S5        29.94S
AURORA         PTCLDY    72  43  35 SW8       29.98R
FRONT RANGE AP NOT AVBL
ERIE MUNI ARPT CLEAR     73  33  23 S5        29.92S
BOULDER MUN AP CLEAR     72  34  25 SW9       29.93S
CENTENNIAL     PTCLDY    73  32  22 SW7       30.00R
BROOMFIELD     CLEAR     70  34  26 W9        29.98R
FORT COLLINS   CLEAR     73  39  29 N13       29.93R
LONGMONT       CLEAR     70  41  35 SW5       29.93S
$$

COZ041-046-047-076>085-087-088-280700-
...PIKES PEAK/PALMER DIVIDE AND SOUTHERN FOOTHILLS...

CITY           SKY/WX    TMP DP  RH WIND       PRES   REMARKS
COLO. SPRINGS  CLEAR     73  39  29 NW8       30.04R
A. F. ACADEMY  CLEAR     74  32  21 VRB5      30.07R
ELLICOTT       CLEAR    N/A N/A N/A CALM      30.02R
FALCON         CLEAR     69  36  28 NW14      30.10R
FORT CARSON    CLEAR     76  38  25 W13       29.99R
LIMON          CLEAR     64  56  75 NW9       29.95R
MONUMENT HILL  CLEAR     61  41  48 W12       30.11R
TRINIDAD       PTCLDY    70  47  43 W10       30.03S
$$

COZ042>045-048>051-090-091-280700-
...NORTHEAST COLORADO...

CITY           SKY/WX    TMP DP  RH WIND       PRES   REMARKS
GREELEY ARPT   CLEAR     66  45  45 NW3       29.92R
AKRON            N/A    N/A N/A N/A MISG      29.86R
BURLINGTON     CLEAR     76  61  59 S17       29.85R
WRAY           CLEAR     76  60  57 S8        29.77S
STERLING       NOT AVBL
HOLYOKE        CLEAR     73  68  83 NW6G22    29.79R
FORT MORGAN    CLEAR     74  40  29 N17G24    29.88R
$$

COZ086-089-092>099-280700-
...SOUTHEAST COLORADO...

CITY           SKY/WX    TMP DP  RH WIND       PRES   REMARKS
PUEBLO         CLEAR     74  46  36 W5        29.91R
LA JUNTA       PTCLDY    79  55  43 SW13      29.86R
LAMAR          MOCLDY    82  57  42 S13       29.81S
SPRINGFIELD      N/A     77  59  53 S17G24    29.95R
$$


USA.gov is the U.S. government's official web portal to all federal, state and local government web resources and services.